Regional Weather Roundup
Issued by NWS

Home | Current Version | Previous Version | Graphics & Text | Print | Product List | Glossary On
Versions: 1 2 3 4 5 6 7 8 9 10 11 12 13 14 15 16 17 18 19 20 21 22 23 24 25 26 27 28 29 30 31 32 33 34 35 36 37 38 39 40 41 42 43 44 45 46 47 48 49 50
237
ASUS43 KMKX 260511
RWRWI

WISCONSIN REGIONAL WEATHER ROUNDUP
NATIONAL WEATHER SERVICE MILWAUKEE/SULLIVAN WI
1200 AM CDT TUE SEP 26 2017

NOTE: "FAIR" INDICATES FEW OR NO CLOUDS BELOW 12,000 FEET WITH NO
SIGNIFICANT WEATHER AND/OR OBSTRUCTIONS TO VISIBILITY.

WIZ001-002-006>008-014>016-023>028-260600-
NORTHWEST WISCONSIN

CITY           SKY/WX    TMP DP  RH WIND       PRES   REMARKS
SUPERIOR ARPT  DRIZZLE   58  57  95 NE9       29.98F
ASHLAND        CLOUDY    59  57  93 NE13      29.99S
HAYWARD        CLOUDY    58  56  93 NE6       29.97F
SIREN          LGT RAIN  57  55  95 CALM      29.98S
CUMBERLAND     LGT RAIN  55  54  94 NW6       29.96F
RICE LAKE      DRIZZLE   58  57  97 CALM      29.97F
CHETEK         CLOUDY    60  60 100 CALM      29.95S
LADYSMITH      CLOUDY    61  59  94 E7        29.97F
EAU CLAIRE     CLOUDY    63  62  97 NE3       29.93F
MENOMONIE      DRIZZLE   60  60 100 CALM      29.95R
NEW RICHMOND   LGT RAIN  57  56  97 N7        29.94F
OSCEOLA        LGT RAIN  57  57 100 N5        29.98F
$$

WIZ003>005-009-010-017-018-260600-
NORTH CENTRAL WISCONSIN

CITY           SKY/WX    TMP DP  RH WIND       PRES   REMARKS
MANITOWISH WTR NOT AVBL
ARBOR VITAE    CLOUDY    62  60  94 NE3       29.97F FOG
WOODRUFF       CLOUDY    62  60  94 NE3       29.97F FOG
RHINELANDER    CLOUDY    63  63 100 NE6       29.97F
EAGLE RIVER    CLOUDY    61  61 100 CALM      29.97F
LAND O LAKES   CLOUDY    61  60  97 NE3       30.00F
PHILLIPS       CLOUDY    58  58 100 NE3       29.97S FOG
TOMAHAWK       FOG       63  62  97 CALM      29.96F VSB 1
MEDFORD        FOG       63  63  99 CALM      29.96R VSB 1/2
MERRILL        CLOUDY    64  64 100 CALM      29.96R
$$

WIZ029-030-035-036-043>047-260600-
CENTRAL WISCONSIN

CITY           SKY/WX    TMP DP  RH WIND       PRES   REMARKS
WAUSAU         CLOUDY    66  64  93 S3        29.94R
MOSINEE        CLOUDY    63  63 100 SW3       29.97S
MARSHFIELD     MOCLDY    63  60  90 SW5       29.95S
STEVENS POINT  CLOUDY    64  64 100 CALM      29.96S
WAUPACA        PTCLDY    67  65  93 CALM      29.95S
WAUTOMA        PTCLDY    66  64  93 W6        29.97R
WISC RAPIDS    LGT RAIN  67  65  93 S3        29.97R
CAMP DOUGLAS   LGT RAIN  66  66 100 CALM      29.95F
$$

WIZ011>013-019>022-031-037>040-048>050-260600-
NORTHEAST WISCONSIN

CITY           SKY/WX    TMP DP  RH WIND       PRES   REMARKS
ANTIGO         CLOUDY    64  64 100 CALM      29.96R
SHAWANO        PTCLDY    67  64  89 CALM      29.93S
OCONTO         CLEAR     63  61  92 CALM      29.93R
STURGEON BAY   CLEAR     69  60  73 CALM      29.94R
GREEN BAY      CLEAR     64  64 100 S5        29.94R
MANITOWOC      MOCLDY    67  60  78 CALM      29.94R
APPLETON       CLEAR     68  57  68 NW3       29.93S
CLINTONVILLE   PTCLDY    66  63  88 CALM      29.94R
OSHKOSH        CLEAR     66  61  84 CALM      29.93S
$$

WIZ032>034-041-042-053>061-260600-
SOUTHWEST WISCONSIN

CITY           SKY/WX    TMP DP  RH WIND       PRES   REMARKS
LA CROSSE      MOCLDY    69  67  93 S3        29.93S
SPARTA         CLOUDY    62  62 100 CALM      29.95S
VIROQUA        CLOUDY    65  65 100 SE5       29.95F
BOSCOBEL       LGT RAIN  68  66  93 CALM      29.94F FOG
PRAIRIE DU CHI CLOUDY    67  65  94 CALM      29.95R
PLATTEVILLE    PTCLDY    68  67  96 N6        29.96F
$$

WIZ056-057-062-063-064-067-068-260600-
SOUTH CENTRAL WISCONSIN

CITY           SKY/WX    TMP DP  RH WIND       PRES   REMARKS
REEDSBURG      CLOUDY    67  66  99 NE3       29.95F
BARABOO/DELLS  CLOUDY    67  62  83 CALM      29.96F
LONE ROCK      HVY RAIN  67  67 100 CALM      29.95S VSB 1
MINERAL POINT  PTCLDY    68  68 100 CALM      29.96S
MADISON        CLEAR     68  63  84 NW6       29.95R
MIDDLETON      PTCLDY    69  64  83 NW5       29.95F
WATERTOWN      CLEAR     66  61  84 CALM      29.93S
MONROE         PTCLDY    68  61  77 NW8       29.95R
JANESVILLE     CLEAR     70  57  64 CALM      29.93S
$$

WIZ051-052-058>065-066-070>072-260600-
SOUTHEAST WISCONSIN

CITY           SKY/WX    TMP DP  RH WIND       PRES   REMARKS
MILWAUKEE      CLEAR     75  61  61 S5        29.93S
WAUKESHA       PTCLDY    70  55  60 S5        29.95S
MILWAUKEE/TIMM CLEAR     68  55  64 CALM      29.94S
RACINE         CLEAR     71  65  81 S3        29.95S
BURLINGTON     CLEAR     62  61  94 CALM      29.94S
KENOSHA        CLEAR     70  60  70 S5        29.94S
FOND DU LAC    PTCLDY    68  59  73 W3        29.94R
SHEBOYGAN      PTCLDY    65  62  90 W5        29.94R
WEST BEND        N/A     63  59  88 CALM      29.94S
JUNEAU         CLEAR     67  59  73 SE5       29.95S
$$

LSZ147-162-260600-
LAKE SUPERIOR

STATION/POSITION TIME  TEMP    WIND        PRES    WAVE
                       AIR SEA DIR/SP/G            HT/PER
                 (UTC) (F)     (DEG/KT/KT) (MB)    (FT/S)
W MID LAKE BUOY  0450   56 56   20/ 14/ 17 1016.1R   3/ 5
DEVILS ISLAND    0500   58      60/ 22/ 27 1016.0R
SAXON HARBOR     0430   61      40/ 12/ 14 1014.9R
$$

LMZ867-665-643>646-260600-
LAKE MICHIGAN

STATION/POSITION TIME  TEMP    WIND        PRES    WAVE
                       AIR SEA DIR/SP/G            HT/PER
                 (UTC) (F)     (DEG/KT/KT) (MB)    (FT/S)
S GREEN BAY BUOY 0500   72 70  240/  4/  4 1013.6
N MID LAKE BUOY  0450   69 67  160/  8/ 10 1014.1F   1
NORTHPORT PIER   0440   72     280/  3/  6 1013.2S
KEWAUNEE LAKESHO 0442   66     260/  1/  6 1012.9R
SHEBOYGAN LAKESH 0500   71     220/  5/  5 1013.0S
PORT WASHINGTON  0440   69     270/  1/  2 1014.2S
ATWATER BUOY     0409   67 62  170/  6/  8 1013.6F
MILWAUKEE LAKESH 0450   69      40/  1/  1   N/A
S MID LAKE BUOY  0450   74 71  120/  8/  8 1013.6F   0
KENOSHA   LAKESH 0500   75     200/  6/  9 1013.2
$$

TC  - TEMPERATURE IN CELSIUS
VSB - VISIBILITY IN STATUTE MILES
WCI - WIND CHILL INDEX
HX  - HEAT INDEX





USA.gov is the U.S. government's official web portal to all federal, state and local government web resources and services.